Вернуться в каталог

YINHE 2-04

АктивенСвязьLEO
NORAD 51949·PAYLOAD·🇨🇳 China
Это название спутника еще не подтверждено официальными источниками.

Запущен Mar 5, 2022 с Xichang Satellite Launch Center

Loading…

Ближайшие Пролёты (ближайшие 24 часа)

TLE

СвежийSource: Space-Track

Эпоха: Sep 14, 2026, 14:04 UTC

1 51949U 22023D   26257.58626343  .00008143  00000-0  32375-3 0  9995
2 51949  63.4478 327.8560 0135005 352.8555   7.0629 15.17954398251284

Отслеживайте YINHE 2-04 в реальном времени с AllMySat

Download on the App Store